Skip Page Navigation
NASA JPL Caltech
NASA Logo - Jet Propulsion Laboratory + View the NASA Portal
+ Center for Near-Earth Object Studies
JPL Home Earth Solar System Stars & Galaxies Technology
JPL Solar System Dynamics
BODIES ORBITS EPHEMERIDES TOOLS PHYSICAL DATA DISCOVERY FAQ SITE MAP
JPL Small-Body Database Browser
Search: [ help ]  
186495 (2002 TB287)
Classification: Main-belt Asteroid          SPK-ID: 2186495
Ephemeris | Orbit Diagram | Orbital Elements | Mission Design | Physical Parameters | Discovery Circumstances ]

[ hide orbit diagram ]

For accurate long-term ephemerides, please instead use our Horizons system.This orbit viewer was implemented using two-body methods, and hence should not be used for determining accurate long-term trajectories (over several years or decades) or planetary encounter circumstances.


Orbital Elements at Epoch 2459396.5 (2021-Jul-01.0) TDB
Reference: JPL 23 (heliocentric ecliptic J2000)
 Element Value Uncertainty (1-sigma)   Units 
e .1349618141698384 3.8244e-08  
a 2.361850480122311 8.6772e-09 au
q 2.0430908545271 9.1269e-08 au
i 5.995515017158462 3.2575e-06 deg
node 262.7773531967995 3.8147e-05 deg
peri 100.500768223977 4.0309e-05 deg
M 83.35938176809678 1.1616e-05 deg
tp 2459089.506618886449
(2020-Aug-28.00661889)
4.306e-05 TDB
period 1325.796987174579
3.63
7.3063e-06
2e-08
d
yr
n .271534785100998 1.4964e-09 deg/d
Q 2.680610105717522 9.8483e-09 au
  Orbit Determination Parameters
   # obs. used (total)      916  
   data-arc span      8195 days (22.44 yr)  
   first obs. used      1998-08-26  
   last obs. used      2021-02-01  
   planetary ephem.      DE441  
   SB-pert. ephem.      SB441-N16  
   condition code      0  
   norm. resid. RMS      .47145  
   source      ORB  
   producer      Otto Matic  
   solution date      2021-Jul-09 02:45:32  

Additional Information
 Earth MOID = 1.05034 au 
 Jupiter MOID = 2.80293 au 
 T_jup = 3.531 
[ show covariance matrix ]

Ephemeris | Orbit Diagram | Orbital Elements | Mission Design | Physical Parameters | Discovery Circumstances ]

Physical Parameter Table
Parameter Symbol Value Units Sigma Reference Notes
absolute magnitude H 15.94   n/a E2021B55  

186495 (2002 TB287)          Discovered 2002-Oct-10 by LINEAR at Socorro
Reference: 20080520/Numbers.arcLast Updated: 2008-05-22
Ephemeris | Orbit Diagram | Orbital Elements | Mission Design | Physical Parameters | Discovery Circumstances ]
ABOUT SSD CREDITS/AWARDS PRIVACY/COPYRIGHT GLOSSARY LINKS
FirstGov 2021-Aug-01 18:45 UT
(server date/time)  
NASA Home Page
Site Manager:   Ryan S. Park
Webmaster  Alan B. Chamberlin